GW6829 Weather Reports


Display with metric or nautical units.
time (UTC)temp
F
wind
direction
speed
MPH
gust
MPH
rain 1hr
in
rain 24hr
in
rain mn
in
humidity
%
barometer
mb
20260505125030 58 14 2.0 5.0 0.00 0.00 0.00 97 1006.2
20260505124531 58 22 2.0 4.0 0.00 0.00 0.00 97 1006.3
20260505124029 58 27 2.0 3.0 0.00 0.00 0.00 97 1006.1
20260505123530 58 26 2.0 4.0 0.00 0.00 0.00 97 1006.0
20260505123030 58 4 1.0 3.0 0.00 0.00 0.00 97 1006.1
20260505122528 58 29 2.0 3.0 0.00 0.00 0.00 97 1005.9
20260505122028 58 25 2.0 3.0 0.00 0.00 0.00 97 1006.0
20260505121528 58 28 2.0 3.0 0.00 0.00 0.00 97 1005.8
20260505121031 58 18 2.0 4.0 0.00 0.00 0.00 97 1006.0
20260505120532 58 19 2.0 4.0 0.00 0.00 0.00 97 1005.9
20260505120032 58 24 2.0 3.0 0.00 0.00 0.00 96 1006.0
20260505115529 58 31 1.0 3.0 0.00 0.00 0.00 96 1005.9
20260505115029 58 336 2.0 3.0 0.00 0.00 0.00 96 1006.0
20260505114530 58 5 1.0 4.0 0.00 0.00 0.00 96 1005.8
20260505114030 58 305 2.0 7.0 0.00 0.00 0.00 96 1005.3
20260505113529 58 7 1.0 4.0 0.00 0.00 0.00 96 1005.6
20260505113031 58 162 1.0 7.0 0.00 0.00 0.00 96 1005.1
20260505112531 58 165 4.0 6.0 0.00 0.00 0.00 96 1004.9
20260505112028 58 164 4.0 8.0 0.00 0.00 0.00 96 1005.0
20260505111530 58 168 4.0 7.0 0.00 0.00 0.00 96 1004.9
20260505111028 58 163 5.0 9.0 0.00 0.00 0.00 96 1005.1
20260505110528 59 193 4.0 9.0 0.00 0.00 0.00 96 1005.0
20260505102029 59 157 5.0 12.0 0.00 0.00 0.00 95 1005.3
20260505101532 59 194 7.0 13.0 0.00 0.00 0.00 95 1005.6
20260505101028 59 188 8.0 13.0 0.00 0.00 0.00 95 1005.2
20260505100529 59 202 4.0 8.0 0.00 0.00 0.00 95 1005.1
20260505100031 59 160 5.0 9.0 0.00 0.00 0.00 95 1005.1
20260505095528 59 168 4.0 9.0 0.00 0.00 0.00 95 1005.0
20260505095030 59 147 4.0 8.0 0.00 0.00 0.00 95 1005.1
20260505094528 59 155 4.0 8.0 0.00 0.00 0.00 95 1005.5
20260505094028 59 164 4.0 7.0 0.00 0.00 0.00 95 1005.6
20260505093531 59 166 4.0 6.0 0.00 0.00 0.00 95 1005.7
20260505093031 59 144 2.0 3.0 0.00 0.00 0.00 94 1005.7
20260505092529 59 133 0.0 3.0 0.00 0.00 0.00 94 1005.9
20260505092029 59 131 2.0 4.0 0.00 0.00 0.00 94 1006.0
20260505091530 59 134 3.0 4.0 0.00 0.00 0.00 94 1006.0
20260505091028 59 44 0.0 3.0 0.00 0.00 0.00 94 1006.0
20260505090531 59 36 1.0 2.0 0.00 0.00 0.00 94 1006.1
20260505090030 59 346 1.0 2.0 0.00 0.00 0.00 94 1006.2
20260505085528 59 202 0.0 4.0 0.00 0.00 0.00 94 1006.7
20260505085030 59 275 2.0 4.0 0.00 0.00 0.00 93 1007.0
20260505084530 59 257 2.0 4.0 0.00 0.00 0.00 93 1006.8
20260505084030 59 261 4.0 4.0 0.00 0.00 0.00 93 1006.7
20260505083528 60 117 2.0 5.0 0.00 0.00 0.00 93 1005.8
20260505083029 60 175 1.0 4.0 0.00 0.00 0.00 92 1006.3
20260505082528 60 219 2.0 3.0 0.00 0.00 0.00 92 1006.2
20260505082030 60 328 0.0 2.0 0.00 0.00 0.00 92 1006.1
20260505081530 60 0 0.0 5.0 0.00 0.00 0.00 92 1006.1
20260505081028 60 227 4.0 6.0 0.00 0.00 0.00 91 1006.7
20260505080529 60 231 2.0 6.0 0.00 0.00 0.00 90 1006.7
20260505080030 60 214 4.0 7.0 0.00 0.00 0.00 90 1007.1
20260505075528 60 256 6.0 9.0 0.00 0.00 0.00 90 1007.1
20260505075029 60 245 4.0 10.0 0.00 0.00 0.00 90 1007.0
20260505074529 60 260 5.0 8.0 0.00 0.00 0.00 90 1006.9
20260505074031 60 256 4.0 5.0 0.00 0.00 0.00 89 1006.8
20260505073531 60 288 3.0 6.0 0.00 0.00 0.00 88 1007.0
20260505073028 60 250 4.0 8.0 0.00 0.00 0.00 87 1006.7
20260505072530 60 230 7.0 12.0 0.00 0.00 0.00 87 1006.9
20260505072030 60 234 6.0 10.0 0.00 0.00 0.00 86 1006.8
20260505071529 61 208 8.0 14.0 0.00 0.00 0.00 86 1006.9
20260505071036 61 208 9.0 13.0 0.00 0.00 0.00 85 1006.6
20260505070529 61 217 5.0 11.0 0.00 0.00 0.00 85 1006.5
20260505070030 61 211 6.0 12.0 0.00 0.00 0.00 83 1006.6
20260505065531 61 214 7.0 9.0 0.00 0.00 0.00 82 1006.5
20260505065028 62 210 7.0 14.0 0.00 0.00 0.00 81 1006.4
20260505064529 62 211 10.0 14.0 0.00 0.00 0.00 79 1006.2
20260505064030 62 204 11.0 14.0 0.00 0.00 0.00 79 1006.1
20260505063528 63 193 9.0 15.0 0.00 0.00 0.00 78 1005.9
20260505063030 63 196 7.0 12.0 0.00 0.00 0.00 76 1006.0
20260505062529 64 192 6.0 11.0 0.00 0.00 0.00 74 1006.1
20260505062030 64 174 7.0 10.0 0.00 0.00 0.00 74 1006.1
20260505061530 64 187 6.0 9.0 0.00 0.00 0.00 73 1006.1
20260505061029 64 152 3.0 8.0 0.00 0.00 0.00 72 1006.3
20260505060530 64 177 3.0 9.0 0.00 0.00 0.00 72 1006.4
20260505060030 64 206 3.0 10.0 0.00 0.00 0.00 71 1006.5
20260505055529 64 177 4.0 8.0 0.00 0.00 0.00 71 1006.6
20260505055028 64 165 5.0 9.0 0.00 0.00 0.00 71 1006.6
20260505054529 64 146 3.0 7.0 0.00 0.00 0.00 71 1006.6
20260505054029 65 178 2.0 7.0 0.00 0.00 0.00 71 1006.5
20260505053531 65 142 3.0 7.0 0.00 0.00 0.00 70 1006.6
20260505053031 65 162 3.0 8.0 0.00 0.00 0.00 70 1006.5
20260505052529 65 204 1.0 7.0 0.00 0.00 0.00 70 1006.6
20260505052029 65 136 3.0 5.0 0.00 0.00 0.00 70 1006.3
20260505051528 65 147 2.0 7.0 0.00 0.00 0.00 70 1006.2
20260505051029 65 39 1.0 6.0 0.00 0.00 0.00 70 1006.2
20260505050528 65 154 0.0 5.0 0.00 0.00 0.00 70 1006.3
20260505041528 66 171 3.0 8.0 0.00 0.00 0.00 68 1006.7
20260505041029 66 149 3.0 6.0 0.00 0.00 0.00 68 1006.8
20260505040528 66 159 2.0 9.0 0.00 0.00 0.00 68 1007.0
20260505040028 66 173 4.0 9.0 0.00 0.00 0.00 68 1007.1
20260505035530 66 198 5.0 9.0 0.00 0.00 0.00 67 1007.1
20260505035029 66 206 4.0 5.0 0.00 0.00 0.00 67 1007.1
20260505034528 67 185 2.0 7.0 0.00 0.00 0.00 66 1007.2
20260505034028 67 136 3.0 8.0 0.00 0.00 0.00 66 1007.2
20260505033528 67 144 5.0 10.0 0.00 0.00 0.00 66 1007.1
20260505033028 67 153 6.0 10.0 0.00 0.00 0.00 66 1007.2
20260505032528 67 157 6.0 9.0 0.00 0.00 0.00 66 1007.2
20260505032030 67 170 4.0 8.0 0.00 0.00 0.00 65 1007.2
20260505031529 67 162 4.0 7.0 0.00 0.00 0.00 65 1007.4
20260505031028 67 166 3.0 7.0 0.00 0.00 0.00 65 1007.3
20260505030529 67 172 4.0 6.0 0.00 0.00 0.00 65 1007.3
20260505030028 67 198 2.0 6.0 0.00 0.00 0.00 65 1007.2
20260505025528 67 166 3.0 6.0 0.00 0.00 0.00 65 1007.2
20260505025029 67 184 3.0 7.0 0.00 0.00 0.00 65 1007.3
20260505024528 67 145 5.0 7.0 0.00 0.00 0.00 64 1007.3
20260505024028 67 194 3.0 8.0 0.00 0.00 0.00 65 1007.2
20260505023528 68 179 4.0 6.0 0.00 0.00 0.00 64 1007.1
20260505023028 68 195 4.0 6.0 0.00 0.00 0.00 64 1007.2
20260505022528 68 179 4.0 7.0 0.00 0.00 0.00 64 1007.2
20260505022029 68 191 4.0 6.0 0.00 0.00 0.00 64 1007.1
20260505021531 68 190 3.0 6.0 0.00 0.00 0.00 63 1007.0
20260505021029 69 172 1.0 6.0 0.00 0.00 0.00 63 1007.0
20260505020529 69 191 3.0 7.0 0.00 0.00 0.00 63 1006.9
20260505020030 69 188 4.0 7.0 0.00 0.00 0.00 62 1006.8
20260505015528 69 203 5.0 9.0 0.00 0.00 0.00 62 1006.8
20260505015028 70 179 5.0 11.0 0.00 0.00 0.00 61 1006.6
20260505014529 70 207 7.0 13.0 0.00 0.00 0.00 61 1006.4
20260505014029 70 208 7.0 12.0 0.00 0.00 0.00 61 1006.4
20260505013529 70 201 9.0 17.0 0.00 0.00 0.00 60 1006.3
20260505013029 70 203 6.0 12.0 0.00 0.00 0.00 61 1006.4
20260505012531 70 202 5.0 13.0 0.00 0.00 0.00 61 1006.3
20260505012028 70 203 9.0 13.0 0.00 0.00 0.00 60 1006.3
20260505011528 70 192 9.0 12.0 0.00 0.00 0.00 60 1006.2
20260505011028 71 202 9.0 11.0 0.00 0.00 0.00 60 1006.2
20260505010529 71 199 8.0 13.0 0.00 0.00 0.00 60 1006.0
20260505010031 71 177 6.0 13.0 0.00 0.00 0.00 60 1006.0
20260505005529 72 210 7.0 13.0 0.00 0.00 0.00 59 1005.9
20260505005029 72 215 8.0 15.0 0.00 0.00 0.00 58 1005.9
20260505004529 72 195 9.0 13.0 0.00 0.00 0.00 58 1005.7
20260505004030 72 211 10.0 12.0 0.00 0.00 0.00 57 1005.7
20260505003528 72 204 8.0 10.0 0.00 0.00 0.00 57 1005.7
20260505003028 73 185 7.0 10.0 0.00 0.00 0.00 57 1005.7
20260505002528 73 196 6.0 15.0 0.00 0.00 0.00 57 1005.6
20260505002028 73 194 8.0 13.0 0.00 0.00 0.00 57 1005.6
20260505001529 73 189 6.0 14.0 0.00 0.00 0.00 56 1005.5
20260505001028 73 179 8.0 14.0 0.00 0.00 0.00 56 1005.6
20260505000529 73 189 8.0 14.0 0.00 0.00 0.00 56 1005.6
20260505000029 74 172 7.0 14.0 0.00 0.00 0.00 55 1005.6
20260504235528 74 192 9.0 14.0 0.00 0.00 0.00 55 1005.6
20260504235028 74 169 9.0 17.0 0.00 0.00 0.00 54 1005.5
20260504234529 74 193 8.0 16.0 0.00 0.00 0.00 54 1005.3
20260504234028 74 180 11.0 15.0 0.00 0.00 0.00 54 1005.5
20260504233528 74 195 10.0 16.0 0.00 0.00 0.00 54 1005.5
20260504233028 74 209 9.0 17.0 0.00 0.00 0.00 54 1005.5
20260504232528 74 181 8.0 13.0 0.00 0.00 0.00 54 1005.6
20260504232030 75 193 7.0 13.0 0.00 0.00 0.00 54 1005.6
20260504231528 75 185 9.0 12.0 0.00 0.00 0.00 53 1005.7
20260504231029 75 159 8.0 15.0 0.00 0.00 0.00 52 1005.6
20260504230529 75 204 9.0 15.0 0.00 0.00 0.00 52 1005.6
20260504230029 75 210 11.0 19.0 0.00 0.00 0.00 52 1005.6
20260504225529 75 198 15.0 19.0 0.00 0.00 0.00 51 1005.6
20260504225030 76 173 8.0 15.0 0.00 0.00 0.00 51 1005.5
20260504224528 76 192 13.0 18.0 0.00 0.00 0.00 52 1005.6
20260504224029 76 194 11.0 19.0 0.00 0.00 0.00 52 1005.7
20260504223529 76 185 9.0 18.0 0.00 0.00 0.00 52 1005.8
20260504223029 76 197 9.0 17.0 0.00 0.00 0.00 51 1005.6
20260504222529 76 195 10.0 15.0 0.00 0.00 0.00 51 1005.9
20260504222029 76 173 7.0 15.0 0.00 0.00 0.00 52 1005.9
20260504221530 76 187 8.0 19.0 0.00 0.00 0.00 50 1006.0
20260504221028 76 207 10.0 22.0 0.00 0.00 0.00 50 1005.9
20260504220531 76 198 16.0 22.0 0.00 0.00 0.00 49 1005.8
20260504220030 77 179 13.0 20.0 0.00 0.00 0.00 50 1005.8
20260504215528 77 194 9.0 14.0 0.00 0.00 0.00 50 1006.0
20260504215030 77 192 7.0 20.0 0.00 0.00 0.00 51 1006.2
20260504214529 77 202 12.0 17.0 0.00 0.00 0.00 50 1005.8
20260504214028 77 174 9.0 19.0 0.00 0.00 0.00 49 1006.0
20260504213528 77 201 11.0 19.0 0.00 0.00 0.00 49 1006.1
20260504213030 77 197 10.0 26.0 0.00 0.00 0.00 49 1006.0
20260504212529 77 200 17.0 26.0 0.00 0.00 0.00 49 1005.9
20260504212029 78 191 13.0 20.0 0.00 0.00 0.00 49 1005.9
20260504211528 78 193 10.0 17.0 0.00 0.00 0.00 49 1006.1
20260504211030 77 199 10.0 22.0 0.00 0.00 0.00 49 1006.3
20260504210530 77 194 11.0 24.0 0.00 0.00 0.00 50 1006.3
20260504210031 77 196 14.0 24.0 0.00 0.00 0.00 50 1006.0
20260504205528 77 187 15.0 23.0 0.00 0.00 0.00 49 1006.4
20260504204538 77 193 9.0 27.0 0.00 0.00 0.00 50 1006.5
20260504204028 77 209 18.0 27.0 0.00 0.00 0.00 49 1006.4
20260504203529 77 194 13.0 23.0 0.00 0.00 0.00 50 1006.5
20260504203029 77 202 16.0 23.0 0.00 0.00 0.00 49 1006.6
20260504202530 77 193 11.0 22.0 0.00 0.00 0.00 50 1006.6
20260504202029 77 213 11.0 23.0 0.00 0.00 0.00 50 1006.6
20260504201528 76 196 13.0 22.0 0.00 0.00 0.00 51 1006.7
20260504201028 76 187 13.0 28.0 0.00 0.00 0.00 51 1006.5
20260504200529 77 189 14.0 24.0 0.00 0.00 0.00 51 1006.6
20260504200030 77 188 14.0 24.0 0.00 0.00 0.00 50 1006.9
20260504195530 76 216 13.0 27.0 0.00 0.00 0.00 51 1006.7
20260504195030 77 197 11.0 24.0 0.00 0.00 0.00 51 1006.7
20260504194530 77 204 15.0 23.0 0.00 0.00 0.00 50 1006.7
20260504194028 76 188 19.0 23.0 0.00 0.00 0.00 51 1006.8
20260504193530 77 200 14.0 27.0 0.00 0.00 0.00 50 1006.8
20260504193028 76 191 18.0 27.0 0.00 0.00 0.00 51 1006.9
20260504192530 76 201 15.0 27.0 0.00 0.00 0.00 51 1006.9
20260504192030 76 196 13.0 21.0 0.00 0.00 0.00 51 1006.9
20260504191529 76 199 10.0 29.0 0.00 0.00 0.00 52 1007.0
20260504191029 76 194 15.0 31.0 0.00 0.00 0.00 51 1006.7
20260504190528 75 196 17.0 28.0 0.00 0.00 0.00 52 1007.2
20260504190028 75 210 17.0 30.0 0.00 0.00 0.00 52 1007.1
20260504185529 75 189 17.0 32.0 0.00 0.00 0.00 52 1007.1
20260504185029 75 194 16.0 32.0 0.00 0.00 0.00 52 1007.3
20260504184528 75 188 17.0 30.0 0.00 0.00 0.00 51 1007.1
20260504184030 75 191 19.0 29.0 0.00 0.00 0.00 52 1006.8
20260504183529 75 189 16.0 24.0 0.00 0.00 0.00 52 1006.9
20260504183028 75 200 17.0 26.0 0.00 0.00 0.00 52 1007.1
20260504182530 75 202 19.0 26.0 0.00 0.00 0.00 52 1007.1
20260504182028 75 193 15.0 23.0 0.00 0.00 0.00 52 1007.5
20260504181530 74 219 15.0 28.0 0.00 0.00 0.00 52 1007.5
20260504181029 74 200 23.0 28.0 0.00 0.00 0.00 52 1007.5
20260504180529 74 186 19.0 29.0 0.00 0.00 0.00 53 1007.9
20260504180030 74 204 20.0 29.0 0.00 0.00 0.00 52 1007.7
20260504175529 74 195 17.0 25.0 0.00 0.00 0.00 52 1007.2
20260504175028 74 194 16.0 27.0 0.00 0.00 0.00 52 1007.7
20260504174530 74 193 19.0 27.0 0.00 0.00 0.00 52 1007.7
20260504174028 74 179 13.0 28.0 0.00 0.00 0.00 53 1008.1
20260504173529 74 190 16.0 24.0 0.00 0.00 0.00 52 1008.2
20260504173031 74 197 10.0 23.0 0.00 0.00 0.00 53 1008.2
20260504172528 74 201 18.0 25.0 0.00 0.00 0.00 52 1008.0
20260504172029 74 193 18.0 25.0 0.00 0.00 0.00 52 1007.9
20260504171536 74 212 13.0 21.0 0.00 0.00 0.00 52 1008.1
20260504171031 74 209 10.0 22.0 0.00 0.00 0.00 52 1008.2
20260504170530 73 189 11.0 25.0 0.00 0.00 0.00 53 1008.0
20260504151030 70 198 19.0 29.0 0.00 0.00 0.00 54 1008.7
20260504150530 69 214 13.0 23.0 0.00 0.00 0.00 54 1009.1
20260504140620 67 196 22.0 31.0 0.00 0.00 0.00 55 1009.1
20260504130530 64 203 15.0 22.0 0.00 0.00 0.00 58 1010.0